Retour au catalogue

STARLINK-35509

ActifCommunicationsVLEO
NORAD 66199·PAYLOAD·🇺🇸 United States

Lancé Oct 26, 2025 depuis Cape Canaveral Space Force Station

Loading…

Prochains Passages (prochaines 24 heures)

TLE

FraisSource: CelesTrak SupGP

Époque: Sep 14, 2026, 21:17 UTC

1 66199C 25243Y   26257.88729167  .00001776  00000+0  52477-4 0  2573
2 66199  53.1603  85.8737 0001501  81.6404 105.7450 15.34384522    19

Suivez STARLINK-35509 en temps réel avec AllMySat

Download on the App Store